Terminal Aerodrome Forecast
Issued by NWS

Home | Current Version | Previous Version | Text Only | Print | Product List | Glossary On
Versions: 1 2 3 4 5 6 7 8 9 10 11 12 13 14 15 16 17 18 19 20 21 22 23 24 25 26
000
FTUS45 KREV 230524
TAFTVL
TAF
KTVL 230524Z 2306/2406 19012G20KT P6SM SCT110 BKN180
     FM230900 19011KT P6SM FEW110 SCT180
     FM231900 19014G24KT P6SM FEW110 SCT180
     FM240200 20009KT P6SM SCT120 SCT180=

USA.gov is the U.S. government's official web portal to all federal, state and local government web resources and services.